Location: Little Elm
(33.1626°N, 96.9375°W)
Time: 13:05:36
(UTC+00:00)

Cosmos 1515 Rocket - Pass Details

Date: 10 July 2022
Orbit: 604 x 630 km, 82.5° (Epoch: 17 August)

Event Time Altitude Azimuth Distance (km) Brightness Sun altitude
Rises 07:17:14 0° 19° (NNE) 2,878 8.0 -33.6°
Reaches altitude 10° 07:20:59 10° 52° (NE) 1,962 6.7 -33.5°
Enters shadow 07:22:09 12° 68° (ENE) 1,858 6.3 -33.4°
